Sanford, ME

11:33 PM EST on January 22, 2018 (GMT -0500)
Sanford Regional

Weather History for KSFM - March, 2014

Change the Weather History Date:

Saturday, March 1, 2014

  Actual Average Record
Temperature  
Mean Temperature 12 °F -  
Max Temperature 28 °F 35 °F 57 °F (2017)
Min Temperature -5 °F 18 °F -13 °F (2015)
Degree Days  
Heating Degree Days 54    
Moisture  
Dew Point -3 °F    
Average Humidity 46    
Maximum Humidity 100    
Minimum Humidity 19    
Precipitation  
Precipitation 0.00 in - - ()
Sea Level Pressure  
Sea Level Pressure 30.27 in    
Wind  
Wind Speed 3 mph (SSW)    
Max Wind Speed 13 mph    
Max Gust Speed 18 mph    
Visibility 10 miles    
Events      
Averages and records for this station are not official NWS values.
T = Trace of Precipitation, MM = Missing Value Source: NWS Daily Summary

Daily Weather History Graph

Daily Weather History Graph

Search for Another Location

Airport or City:

Trip Planner

Search our weather history database for the weather conditions in past years. The results will help you decide how hot, cold, wet, or windy it might be!

Date:

Astronomy

Mar. 01, 2014 Rise Set
Actual Time 6:19 AM EST 5:31 PM EST
Civil Twilight 5:50 AM EST 6:00 PM EST
Nautical Twilight 5:17 AM EST 6:33 PM EST
Astronomical Twilight 4:44 AM EST 7:06 PM EST
Moon 6:09 AM EST (3/1) 6:17 PM EST (3/1)
Length of Visible Light 12h 09m
Length of Day
11h 12m
New Moon, 0% of the Moon is Illuminated
Mar 1
New Moon
Mar 8
First Quarter
Mar 16
Full
Mar 23
Last Quarter
Mar 30
New

Hourly Weather History & Observations

Time (EST) Temp. Windchill Dew Point Humidity Pressure Visibility Wind Dir Wind Speed Gust Speed Precip Events Conditions
12:15 AM -2.2 °F - -9.4 °F 71% 30.42 in 10.0 mi Calm Calm - N/A   Clear
12:35 AM -2.2 °F -10.4 °F -5.8 °F 85% 30.42 in 10.0 mi WSW 3.5 mph - N/A   Clear
12:55 AM -2.2 °F -10.4 °F -11.2 °F 66% 30.42 in 10.0 mi WSW 3.5 mph - N/A   Clear
1:15 AM -2.2 °F - -7.6 °F 78% 30.42 in 10.0 mi Calm Calm - N/A   Clear
1:35 AM -4.0 °F - -9.4 °F 78% 30.41 in 10.0 mi Calm Calm - N/A   Clear
1:55 AM -4.0 °F - -9.4 °F 78% 30.42 in 10.0 mi Calm Calm - N/A   Clear
2:15 AM -4.0 °F - -7.6 °F 85% 30.42 in 10.0 mi Calm Calm - N/A   Clear
2:35 AM -4.0 °F - -11.2 °F 71% 30.41 in 9.0 mi Calm Calm - N/A   Clear
2:55 AM -4.0 °F - -9.4 °F 78% 30.41 in 9.0 mi Calm Calm - N/A   Clear
3:15 AM -4.0 °F - -20.2 °F 46% 30.40 in 9.0 mi Calm Calm - N/A   Clear
3:35 AM -4.0 °F - -20.2 °F 46% 30.39 in 10.0 mi Calm Calm - N/A   Clear
3:55 AM -5.8 °F - -14.8 °F 65% 30.39 in 9.0 mi Calm Calm - N/A   Clear
4:15 AM -4.0 °F - -4.0 °F 100% 30.39 in 8.0 mi Calm Calm - N/A   Clear
4:55 AM -4.0 °F - -23.8 °F 38% 30.39 in 9.0 mi Calm Calm - N/A   Clear
5:15 AM -5.8 °F - -25.6 °F 38% 30.39 in 8.0 mi Calm Calm - N/A   Clear
5:35 AM -4.0 °F - -20.2 °F 46% 30.38 in 7.0 mi Calm Calm - N/A   Clear
5:55 AM -4.0 °F -14.6 °F -16.6 °F 55% 30.39 in 8.0 mi West 4.6 mph - N/A   Clear
6:15 AM -4.0 °F -12.4 °F -16.6 °F 55% 30.38 in 9.0 mi WSW 3.5 mph - N/A   Clear
6:35 AM -4.0 °F - -16.6 °F 55% 30.39 in 7.0 mi Calm Calm - N/A   Clear
6:55 AM -2.2 °F -10.4 °F -13.0 °F 60% 30.39 in 7.0 mi West 3.5 mph - N/A   Clear
7:15 AM -0.4 °F - -13.0 °F 55% 30.40 in 8.0 mi Calm Calm - N/A   Clear
7:35 AM 1.4 °F - -27.4 °F 25% 30.39 in 8.0 mi Calm Calm - N/A   Clear
7:55 AM 3.2 °F - -14.8 °F 43% 30.40 in 10.0 mi Calm Calm - N/A   Clear
8:15 AM 6.8 °F - -13.0 °F 40% 30.40 in 10.0 mi Calm Calm - N/A   Clear
8:35 AM 10.4 °F 2.2 °F -7.6 °F 44% 30.38 in 10.0 mi NNE 4.6 mph - N/A   Clear
8:55 AM 12.2 °F - -11.2 °F 34% 30.38 in 10.0 mi Calm Calm - N/A   Clear
9:15 AM 14.0 °F - -13.0 °F 29% 30.39 in 10.0 mi Calm Calm - N/A   Clear
9:35 AM 15.8 °F - -2.2 °F 45% 30.38 in 10.0 mi Calm Calm - N/A   Clear
9:55 AM 24.8 °F 16.9 °F -2.2 °F 31% 30.37 in 10.0 mi SSW 6.9 mph - N/A   Clear
10:15 AM 23.0 °F 11.1 °F -9.4 °F 24% 30.37 in 10.0 mi SSW 12.7 mph 17.3 mph N/A   Clear
10:35 AM 23.0 °F 12.4 °F -9.4 °F 24% 30.35 in 10.0 mi SSW 10.4 mph - N/A   Clear
10:55 AM 24.8 °F 14.6 °F -7.6 °F 24% 30.34 in 10.0 mi SSW 10.4 mph - N/A   Clear
11:15 AM 24.8 °F 14.6 °F -7.6 °F 24% 30.34 in 10.0 mi SSW 10.4 mph 18.4 mph N/A   Clear
11:35 AM 24.8 °F 15.3 °F -7.6 °F 24% 30.33 in 10.0 mi SW 9.2 mph - N/A   Clear
11:55 AM 24.8 °F 14.6 °F -9.4 °F 22% 30.31 in 10.0 mi SSW 10.4 mph - N/A   Clear
12:15 PM 26.6 °F 16.8 °F -2.2 °F 29% 30.30 in 10.0 mi SW 10.4 mph 16.1 mph N/A   Clear
12:35 PM 26.6 °F 19.1 °F -2.2 °F 29% 30.28 in 10.0 mi South 6.9 mph - N/A   Clear
12:55 PM 26.6 °F 18.2 °F -4.0 °F 26% 30.27 in 10.0 mi South 8.1 mph - N/A   Clear
1:15 PM 28.4 °F 21.2 °F 3.2 °F 34% 30.26 in 10.0 mi SW 6.9 mph - N/A   Clear
1:35 PM 28.4 °F 21.2 °F -2.2 °F 27% 30.25 in 10.0 mi SSW 6.9 mph - N/A   Clear
1:55 PM 28.4 °F 18.0 °F -9.4 °F 19% 30.24 in 10.0 mi SW 12.7 mph 18.4 mph N/A   Clear
2:15 PM 28.4 °F 21.2 °F 1.4 °F 31% 30.22 in 10.0 mi South 6.9 mph - N/A   Clear
2:35 PM 28.4 °F 21.2 °F 1.4 °F 31% 30.20 in 10.0 mi SSW 6.9 mph - N/A   Clear
2:55 PM 28.4 °F 21.2 °F 1.4 °F 31% 30.20 in 10.0 mi South 6.9 mph - N/A   Clear
3:15 PM 28.4 °F 21.2 °F 1.4 °F 31% 30.19 in 10.0 mi SSW 6.9 mph 16.1 mph N/A   Scattered Clouds
3:35 PM 28.4 °F 19.1 °F 3.2 °F 34% 30.19 in 10.0 mi WSW 10.4 mph - N/A   Partly Cloudy
3:55 PM 28.4 °F 19.7 °F 3.2 °F 34% 30.19 in 10.0 mi SW 9.2 mph - N/A   Clear
4:15 PM 28.4 °F 20.4 °F 3.2 °F 34% 30.17 in 10.0 mi South 8.1 mph - N/A   Scattered Clouds
4:35 PM 28.4 °F 22.2 °F 1.4 °F 31% 30.16 in 10.0 mi South 5.8 mph - N/A   Overcast
4:55 PM 28.4 °F 21.2 °F 1.4 °F 31% 30.15 in 10.0 mi South 6.9 mph - N/A   Mostly Cloudy
5:15 PM 28.4 °F 23.3 °F 5.0 °F 37% 30.15 in 10.0 mi SSE 4.6 mph - N/A   Mostly Cloudy
5:35 PM 28.4 °F - 10.4 °F 47% 30.14 in 10.0 mi Calm Calm - N/A   Scattered Clouds
5:55 PM 28.4 °F - 3.2 °F 34% 30.14 in 10.0 mi Calm Calm - N/A   Partly Cloudy
6:15 PM 28.4 °F - 5.0 °F 37% 30.13 in 10.0 mi Calm Calm - N/A   Partly Cloudy
6:35 PM 26.6 °F - 8.6 °F 47% 30.13 in 10.0 mi Calm Calm - N/A   Mostly Cloudy
6:55 PM 26.6 °F - 8.6 °F 47% 30.13 in 10.0 mi Calm Calm - N/A   Scattered Clouds
7:15 PM 26.6 °F - 10.4 °F 51% 30.13 in 10.0 mi Calm Calm - N/A   Clear
7:35 PM 24.8 °F - 12.2 °F 59% 30.13 in 10.0 mi Calm Calm - N/A   Mostly Cloudy
7:55 PM 26.6 °F 21.2 °F 8.6 °F 47% 30.12 in 10.0 mi South 4.6 mph - N/A   Overcast
8:15 PM 28.4 °F - 6.8 °F 40% 30.10 in 10.0 mi Calm Calm - N/A   Overcast
8:35 PM 28.4 °F 24.6 °F 10.4 °F 47% 30.10 in 10.0 mi South 3.5 mph - N/A   Overcast
8:55 PM 28.4 °F 23.3 °F 10.4 °F 47% 30.11 in 10.0 mi SSW 4.6 mph - N/A   Overcast
9:15 PM 28.4 °F 21.2 °F 8.6 °F 43% 30.11 in 10.0 mi SSW 6.9 mph - N/A   Overcast
9:35 PM 28.4 °F 23.3 °F 12.2 °F 51% 30.09 in 10.0 mi SSW 4.6 mph - N/A   Overcast
9:55 PM 28.4 °F 22.2 °F 12.2 °F 51% 30.09 in 10.0 mi SSW 5.8 mph - N/A   Overcast
10:15 PM 28.4 °F 24.6 °F 10.4 °F 47% 30.08 in 10.0 mi SSW 3.5 mph - N/A   Overcast
10:35 PM 28.4 °F 22.2 °F 15.8 °F 59% 30.07 in 10.0 mi SSW 5.8 mph - N/A   Overcast
10:55 PM 28.4 °F 20.4 °F 12.2 °F 51% 30.05 in 10.0 mi South 8.1 mph - N/A   Overcast
11:15 PM 28.4 °F 24.6 °F 12.2 °F 51% 30.05 in 10.0 mi SSW 3.5 mph - N/A   Overcast
11:35 PM 28.4 °F 21.2 °F 17.6 °F 64% 30.04 in 10.0 mi SSW 6.9 mph - N/A   Overcast
11:55 PM 28.4 °F 22.2 °F 12.2 °F 51% 30.04 in 10.0 mi SSW 5.8 mph - N/A   Overcast